Location: Bainville
(48.5881°N, 6.0958°E)
Time: 07:16:06
(UTC+00:00)

Daily predictions for brighter satellites

Satellite Brightness Start Highest point End
(mag) Time Altitude Azimuth Time Altitude Azimuth Time Altitude Azimuth
Gbstr 26 Del rocket 4.0 16:54:28 10° WNW 17:00:06 77° NNE 17:07:08 10° ESE
Cosmos 1758 Rocket 4.0 17:01:39 10° NNW 17:06:06 71° W 17:10:33 10° S
Unknown 4.0 17:02:05 10° W 17:06:11 57° NNW 17:10:17 10° ENE
SMAP 3.4 17:02:06 10° S 17:06:44 76° WSW 17:11:25 10° NNW
Starlink (trailer) 4.1 17:03:44 10° W 17:07:50 56° NNW 17:11:56 10° ENE
ATLAS 5 CENTAUR R/B 2.5 17:04:29 10° WSW 17:08:42 48° NW 17:13:31 10° NE
Unknown 4.1 17:05:23 10° W 17:09:28 56° NNW 17:13:34 10° ENE
Unknown 4.1 17:07:06 10° W 17:11:11 55° NNW 17:15:17 10° ENE
Meteor 1-16 Rocket 4.3 17:06:32 10° S 17:11:53 55° E 17:17:08 10° NNE
Cosmos 1908 4.1 17:11:51 10° SSE 17:15:14 29° E 17:18:37 10° NNE
Cosmos 1953 2.6 17:11:50 10° SSW 17:15:54 75° W 17:19:59 10° N
Meteor 1-11 4.5 17:10:26 10° N 17:16:03 50° ENE 17:21:40 10° SSE
Cosmos 2278 Rocket 2.9 17:11:57 10° SSE 17:16:59 34° ESE 17:22:02 10° NE
ASTEX 1 3.7 17:12:23 10° NNE 17:17:10 46° E 17:21:58 10° SSE
Unknown 4.1 17:13:09 10° W 17:17:13 53° NNW 17:21:17 10° ENE
FengYun 1-2 T 4.4 17:11:51 10° SE 17:17:18 54° ENE 17:22:45 10° N
Unknown 4.1 17:13:20 10° W 17:17:23 53° NNW 17:21:27 10° ENE
Unknown 4.1 17:13:44 10° W 17:17:48 53° NNW 17:21:53 10° ENE
Unknown 4.2 17:16:35 10° W 17:20:39 52° NNW 17:24:44 10° ENE
Unknown 4.2 17:18:50 10° W 17:22:53 51° NNW 17:26:53 10° ENE
Cosmos 1844 3.9 17:17:40 10° SSW 17:23:24 79° WNW 17:29:14 10° NNE
Cosmos 1726 2.2 17:20:23 10° S 17:23:56 51° E 17:27:29 10° NNE
Unknown 4.2 17:20:37 10° W 17:24:41 50° N 17:28:35 11° ENE
SKYMED 2 3.9 17:21:38 10° NNE 17:25:48 43° E 17:29:57 10° S
Abrixas rocket 3.1 17:23:03 10° SW 17:25:50 31° SSE 17:28:08 13° E
Unknown 3.2 17:22:34 10° WNW 17:25:57 62° NNE 17:29:01 12° E
Unknown 4.2 17:23:57 10° W 17:28:00 49° N 17:31:46 12° ENE
Unknown 4.2 17:24:06 10° W 17:28:08 50° N 17:31:55 12° ENE
YAOGAN 1 2.9 17:24:32 10° SE 17:28:38 43° ENE 17:32:45 10° N
Unknown 4.0 17:25:34 10° WNW 17:29:09 42° N 17:32:10 14° ENE
Unknown 4.2 17:25:30 10° W 17:29:33 49° N 17:33:16 12° ENE
Cosmos 2058 4.4 17:27:36 10° NNE 17:30:27 17° ENE 17:32:43 12° ESE
ATLAS 3B R/B 4.2 17:28:56 10° SE 17:31:18 12° ESE 17:32:24 12° E
FALCON 9 DEB 3.3 17:27:56 10° WNW 17:31:24 60° NNE 17:34:14 14° E
Cosmos 2228 3.3 17:27:19 10° SSW 17:31:41 73° WNW 17:36:02 10° N
CSL-04 Rocket 3.8 17:27:13 10° SE 17:32:36 56° ENE 17:37:58 10° N
Unknown 4.2 17:28:44 10° W 17:32:47 49° N 17:36:21 13° ENE
Cosmos 489 Rocket 4.5 17:27:05 10° S 17:33:13 65° ESE 17:39:22 10° NNE
Lacrosse 5 2.0 17:29:20 10° NW 17:34:22 63° NNE 17:39:03 12° ESE
H-2A R/B 3.8 17:33:28 12° ENE 17:35:12 14° NE 17:37:49 10° NNE
Unknown 4.2 17:32:10 10° W 17:36:12 48° N 17:39:37 14° ENE
Envisat 3.0 17:32:06 10° SSE 17:37:11 89° W 17:42:18 10° NNW
Cosmos 1726 Rocket 4.0 17:33:14 10° SSW 17:37:37 68° WNW 17:41:58 10° N
Unknown 4.3 17:33:53 10° W 17:37:55 48° N 17:41:15 14° ENE
Unknown 4.3 17:35:33 10° W 17:39:35 47° N 17:42:51 15° ENE
Cosmos 921 Rocket 3.5 17:35:12 10° SSW 17:39:40 67° WNW 17:44:07 10° NNE
Shenzhou-11 Module 3.8 17:37:34 10° WSW 17:39:45 21° S 17:41:55 10° SE
CENTAUR R/B 4.0 17:37:25 10° SE 17:40:19 14° ESE 17:40:48 14° E
Unknown 4.3 17:37:14 10° W 17:41:16 47° N 17:44:27 15° ENE
Lacrosse 5 rocket 4.4 17:39:53 10° WSW 17:41:21 12° SW 17:42:50 10° SSW
Unknown 3.3 17:41:01 10° WNW 17:44:31 63° NNE 17:46:48 20° E
Unknown 4.3 17:40:36 10° W 17:44:37 46° N 17:47:39 16° ENE
Unknown 4.1 17:42:05 10° WNW 17:45:00 39° SW 17:47:58 10° SE
Cosmos 1356 3.4 17:42:25 10° SSW 17:45:51 83° WNW 17:49:19 10° N
Unknown 4.3 17:42:19 10° W 17:46:20 46° N 17:49:18 17° ENE
Meteor 2-10 3.9 17:41:53 10° S 17:46:57 83° E 17:52:00 10° NNE
Falcon 9 debris 3.1 17:43:57 10° WNW 17:47:24 77° NNE 17:49:37 21° ESE
NOAA 11 4.5 17:42:33 10° SE 17:47:42 45° ENE 17:52:53 10° N
Unknown 4.3 17:43:55 10° W 17:47:56 46° N 17:50:50 17° ENE
Cosmos 1328 4.2 17:45:07 10° NNW 17:49:05 67° W 17:52:59 10° S
Unknown 4.3 17:45:33 10° W 17:49:34 46° N 17:52:23 18° ENE
Cosmos 1833 Rocket 2.6 17:44:38 10° NNW 17:50:17 76° ENE 17:55:55 10° SSE
Unknown 4.3 17:46:21 10° W 17:50:22 46° N 17:53:10 18° ENE
Unknown 4.3 17:48:43 10° W 17:52:44 46° N 17:55:26 19° ENE
YAOGAN 6 2.7 17:51:53 10° S 17:55:32 80° WSW 17:59:11 10° NNW
Unknown 4.3 17:52:05 10° W 17:56:06 45° N 17:58:39 20° ENE
Cosmos 1939 Rocket 3.2 17:52:19 10° SE 17:56:07 42° ENE 17:59:59 10° N
Unknown 4.0 17:53:35 10° WNW 17:57:17 44° N 17:59:13 24° ENE
USA 116 3.3 17:54:19 10° NNE 17:57:28 53° ESE 18:00:50 10° S
Unknown 4.3 17:53:45 10° W 17:57:45 45° N 18:00:14 21° ENE
Unknown 4.3 17:55:40 10° WNW 17:59:40 45° N 18:02:03 22° ENE
Cosmos 2058 Rocket 3.7 17:56:38 10° SSW 18:00:56 59° WNW 18:05:15 10° N
Unknown 4.3 17:57:06 10° WNW 18:01:06 45° N 18:03:26 22° ENE
USA 238 DEB 3.9 17:55:18 10° SSW 18:01:41 49° ESE 18:08:11 10° NE
USA 238 3.9 17:55:25 10° SSW 18:01:48 49° ESE 18:08:16 11° NE
Unknown 4.3 17:58:45 10° WNW 18:02:44 45° N 18:05:00 23° ENE
Unknown 4.3 18:02:08 10° WNW 18:06:08 45° N 18:08:15 24° ENE
Unknown 3.1 18:03:01 10° WNW 18:06:33 87° NNE 18:08:00 33° ESE
Unknown 4.3 18:03:47 10° WNW 18:07:47 44° N 18:09:49 25° NE
CZ-2D R/B 3.2 18:04:10 10° SSE 18:07:59 62° ENE 18:11:50 10° N
Cosmos 1300 3.1 18:05:44 10° SSE 18:09:16 38° E 18:12:50 10° NNE
Unknown 4.3 18:05:29 10° WNW 18:09:28 44° N 18:11:26 25° NE
SJ 16-02 2.6 18:07:03 10° N 18:10:34 23° NE 18:10:34 23° NE
Unknown 4.3 18:07:08 10° WNW 18:11:07 44° N 18:13:01 26° NE
COSMO-SKYMED 1 3.1 18:09:38 10° N 18:13:57 62° WNW 18:18:14 10° SSW
Cosmos 1461 3.3 18:09:55 10° NW 18:13:57 62° SW 18:17:48 12° SSE
Unknown 4.3 18:10:34 10° WNW 18:14:33 44° N 18:16:17 28° NE
Unknown 4.0 18:11:20 10° WNW 18:15:07 46° N 18:16:22 33° ENE
Unknown 4.3 18:11:42 10° WNW 18:15:41 44° N 18:17:22 29° NE
Cosmos 2061 Rocket 4.5 18:10:11 10° N 18:15:58 37° ENE 18:19:07 23° ESE
Unknown 4.3 18:12:23 10° WNW 18:16:23 44° N 18:18:00 29° NE
Cosmos 1339 Rocket 4.5 18:10:22 10° S 18:16:27 85° W 18:22:40 10° N
Unknown 4.2 18:12:44 10° WNW 18:16:39 44° N 18:18:05 30° NE
Unknown 4.3 18:14:05 10° WNW 18:18:04 44° N 18:19:38 30° NE
Cosmos 2082 Rocket 2.1 18:13:15 10° NNW 18:19:00 86° ENE 18:24:36 10° SSE
Ariane Rocket 2.9 18:14:45 10° SSE 18:19:48 68° ENE 18:24:54 10° N
Unknown 4.3 18:16:18 10° WNW 18:20:14 44° N 18:21:37 31° NE
Cosmos 1459 Rocket 4.1 18:14:35 10° N 18:20:40 53° ENE 18:26:49 10° SSE
Unknown 4.3 18:17:13 10° WNW 18:21:12 44° N 18:22:39 31° NE
Unknown 4.3 18:20:34 10° WNW 18:24:33 44° N 18:25:50 33° NE
CZ-4 R/B 2.9 18:21:13 10° SSW 18:25:09 39° W 18:29:09 10° NNW
NOSS 3-2 (A) 3.5 18:19:49 10° SSW 18:25:26 56° ESE 18:29:48 20° NE
Cosmos 2084 Rocket 3.4 18:21:31 10° NW 18:26:00 80° NE 18:27:37 38° SE
Unknown 4.3 18:22:13 10° WNW 18:26:12 44° N 18:27:25 34° NE
ATLAS CENTAUR R/B 3.6 18:24:03 10° NNW 18:26:32 14° NNE 18:27:18 14° NNE
Unknown 4.3 18:23:54 10° WNW 18:27:53 44° N 18:29:02 35° NE
Unknown 4.3 18:25:32 10° WNW 18:29:32 44° N 18:30:36 36° NE
Meteor 2-1 Rocket 4.3 18:25:57 10° SSE 18:31:12 48° E 18:36:34 10° NNE
HJ-1C 3.3 18:32:27 70° NE 18:32:27 70° NE 18:35:40 10° N
Cosmos 44 4.0 18:28:44 10° S 18:32:32 34° SE 18:32:32 34° SE
Cosmos 1937 Rocket 3.8 18:31:08 10° NNW 18:36:02 42° ENE 18:36:31 41° ENE
Unknown 4.2 18:32:12 10° WNW 18:36:12 45° N 18:36:58 40° NE
Unknown 4.2 18:33:55 10° WNW 18:37:55 45° N 18:38:36 40° NNE
Cosmos 990 Rocket 4.1 18:33:08 10° NNW 18:38:17 55° ENE 18:39:26 45° ESE
Okean 3 Rocket 3.7 18:34:34 10° N 18:38:58 51° ENE 18:38:58 51° ENE
Unknown 4.2 18:35:31 10° WNW 18:39:31 45° N 18:40:08 41° NNE
Resurs 01 Rocket 3.8 18:42:28 13° NNE 18:42:28 13° NNE 18:43:14 10° NNE
Unknown 4.2 18:37:13 10° WNW 18:41:13 45° N 18:41:45 42° NNE
Cosmos 1727 Rocket 4.0 18:36:08 10° SSW 18:42:19 79° W 18:48:32 10° N
Unknown 4.2 18:38:53 10° WNW 18:42:53 45° N 18:43:21 43° NNE
In-Cosmos 22 Rocket 4.0 18:38:19 10° N 18:43:43 73° ENE 18:46:48 27° SSE
Unknown 4.2 18:42:13 10° WNW 18:46:14 45° N 18:46:33 44° NNE
Cosmos 2173 Rocket 3.9 18:41:31 10° N 18:47:49 81° E 18:53:59 10° S
Starlink (trailer) 4.2 18:43:52 10° WNW 18:47:53 46° N 18:48:08 45° NNE
Cosmos 1076 Rocket 3.9 18:44:05 10° NNW 18:48:25 62° W 18:52:41 10° S
Unknown 4.2 18:45:31 10° WNW 18:49:32 46° N 18:49:42 45° NNE
NOSS 3-2 (C) 3.4 18:44:54 10° SSW 18:50:32 55° ESE 18:51:57 45° E
Unknown 4.2 18:47:13 10° WNW 18:51:15 46° N 18:51:21 46° NNE
Cosmos 1802 Rocket 3.9 18:46:57 10° N 18:53:26 75° E 18:57:43 22° SSE
ADEOS Rocket 3.6 18:46:33 10° NNE 18:53:53 46° E 19:00:42 10° SSE
ATLAS 5 CENTAUR R/B 4.0 18:51:17 10° WNW 18:54:37 18° NNW 18:57:39 12° NNE
Cosmos 1812 Rocket 4.3 18:50:58 10° SSW 18:55:19 54° WNW 18:59:43 10° N
Unknown 4.2 18:53:15 10° WNW 18:57:05 47° N 18:57:05 47° N
SPOT 3 Rocket 3.5 18:57:17 59° ENE 18:57:20 59° ENE 19:02:28 10° N
Unknown 4.2 18:53:23 10° WNW 18:57:11 46° N 18:57:11 46° N
Unknown 4.2 18:53:50 10° WNW 18:57:40 47° N 18:57:40 47° N
Cosmos 2123 Rocket 4.2 19:01:06 47° ENE 19:01:06 47° ENE 19:06:21 10° NNE
Unknown 4.3 18:56:38 10° WNW 19:00:21 47° N 19:00:21 47° N
Cosmos 2278 Rocket 3.2 18:55:28 10° SW 19:00:55 46° NW 19:06:25 10° NNE
Abrixas rocket 4.1 18:58:27 10° W 18:59:58 26° WSW 18:59:58 26° WSW
Unknown 4.3 18:58:55 10° WNW 19:02:32 46° NNW 19:02:32 46° NNW
Cosmos 2297 3.6 18:57:44 10° SSW 19:03:23 72° ESE 19:04:47 51° NE
Unknown 4.4 19:00:42 10° WNW 19:04:14 46° NNW 19:04:14 46° NNW
SL-24 R/B 4.5 19:00:52 10° NNE 19:06:52 79° ESE 19:11:49 10° S
Unknown 4.4 19:03:42 10° WNW 19:06:23 45° WNW 19:06:23 45° WNW
Cosmos 2058 3.7 19:03:35 10° NNW 19:07:42 52° W 19:08:59 37° SSW
Unknown 4.4 19:04:01 10° WNW 19:07:25 45° NNW 19:07:25 45° NNW
Unknown 4.5 19:04:10 10° WNW 19:07:33 44° NNW 19:07:33 44° NNW
Cosmos 1725 Rocket 3.9 19:03:03 10° N 19:09:19 67° ENE 19:10:07 61° ESE
Cosmos 1000 Rocket 4.4 19:03:09 10° S 19:09:21 89° WNW 19:15:40 10° N
Cosmos 2233 Rocket 4.5 19:03:27 10° N 19:08:30 42° NE 19:08:30 42° NE
Unknown 4.5 19:05:34 10° WNW 19:08:54 44° NNW 19:08:54 44° NNW
Cosmos 2151 4.0 19:08:52 10° N 19:11:41 40° N 19:11:41 40° N
Cosmos 2100 Rocket 4.3 19:07:28 10° NNW 19:13:35 63° W 19:19:37 10° S
H-2A R/B 2.1 19:14:06 66° NE 19:14:06 66° NE 19:19:05 10° N
Lacrosse 5 3.1 19:12:34 10° WNW 19:17:09 35° SW 19:18:16 31° SSW
ATLAS 3B R/B 2.7 19:14:06 10° SSW 19:19:45 55° SSE 19:19:45 55° SSE
ARGOS 3.3 19:23:53 65° NNE 19:23:53 65° NNE 19:28:37 10° NNW
Cosmos 1898 Rocket 3.9 19:19:41 10° NNW 19:24:54 61° WSW 19:25:34 56° SW
CENTAUR R/B 2.7 19:23:29 10° SSW 19:28:05 54° S 19:28:05 54° S
Cosmos 2016 Rocket 4.2 19:26:03 10° NNW 19:32:18 71° W 19:34:31 42° SSW
SJ 16-02 3.2 19:45:11 10° NNW 19:47:34 29° NW 19:47:34 29° NW
USA 238 DEB 4.4 19:46:09 10° WSW 19:52:42 50° NW 19:55:39 32° NNE
USA 238 4.4 19:46:15 10° WSW 19:52:48 50° NW 19:55:43 32° NNE
CZ-2C R/B 4.1 20:03:09 46° NNW 20:03:09 46° NNW 20:07:08 10° NNW
ATLAS CENTAUR R/B 4.1 20:02:27 10° NNW 20:03:29 16° NNW 20:03:29 16° NNW
Resurs 01 Rocket 4.4 20:20:03 13° NNW 20:20:03 13° NNW 20:20:36 10° NNW
NOSS 3-2 (A) 4.5 20:10:50 10° WSW 20:16:33 42° NNW 20:17:15 41° NNW
ADEOS Rocket 4.3 20:32:05 10° N 20:39:20 46° WNW 20:46:08 10° SW
